Newton, KS

2:19 PM CST on December 05, 2019 (GMT -0600)
Newton City County

Weather History for KEWK - October, 2019

Change the Weather History Date:

Wednesday, October 9, 2019

  Actual Average Record
Temperature  
Mean Temperature 62 °F -  
Max Temperature 71 °F 68 °F 82 °F (2010)
Min Temperature 53 °F 47 °F 42 °F (2005)
Degree Days  
Heating Degree Days 3    
Growing Degree Days 12 (Base 50)    
Moisture  
Dew Point 54 °F    
Average Humidity 81    
Maximum Humidity 94    
Minimum Humidity 64    
Precipitation  
Precipitation 0.73 in - - ()
Sea Level Pressure  
Sea Level Pressure 29.80 in    
Wind  
Wind Speed 17 mph (SSE)    
Max Wind Speed 25 mph    
Max Gust Speed 36 mph    
Visibility 10 miles    
Events Rain , Thunderstorm    
Averages and records for this station are not official NWS values.
T = Trace of Precipitation, MM = Missing Value Source: NWS Daily Summary

Daily Weather History Graph

Daily Weather History Graph

Search for Another Location

Airport or City:

Astronomy

Oct. 09, 2019 Rise Set
Actual Time 7:31 AM CDT 7:00 PM CDT
Civil Twilight 7:05 AM CDT 7:26 PM CDT
Nautical Twilight 6:35 AM CDT 7:57 PM CDT
Astronomical Twilight 6:04 AM CDT 8:27 PM CDT
Moon 5:28 PM CDT (10/9) 3:25 AM CDT (10/9)
Length of Visible Light 12h 21m
Length of Day
11h 28m
Waxing Gibbous, 85% of the Moon is Illuminated
Oct 9
Waxing Gibbous
Oct 13
Full
Oct 21
Last Quarter
Oct 27
New
Nov 4
First Quarter

Hourly Weather History & Observations

Time (CDT) Temp. Dew Point Humidity Pressure Visibility Wind Dir Wind Speed Gust Speed Precip Events Conditions
12:56 AM 57.0 °F 46.9 °F 69% 29.89 in 10.0 mi SSE 12.7 mph - N/A   Clear
1:56 AM 57.0 °F 46.9 °F 69% 29.88 in 10.0 mi SSE 12.7 mph - N/A   Clear
2:56 AM 57.0 °F 46.9 °F 69% 29.87 in 10.0 mi SSE 11.5 mph - N/A   Clear
3:56 AM 57.9 °F 46.0 °F 65% 29.86 in 10.0 mi South 16.1 mph 20.7 mph N/A   Scattered Clouds
4:23 AM 57.2 °F 48.2 °F 72% 29.88 in 10.0 mi South 20.7 mph 26.5 mph 0.00 in Rain , Thunderstorm Light Thunderstorms and Rain
4:56 AM 54.0 °F 51.1 °F 90% 29.86 in 10.0 mi South 18.4 mph - 0.13 in Rain , Thunderstorm Light Thunderstorms and Rain
5:56 AM 55.0 °F 52.0 °F 89% 29.88 in 10.0 mi SSE 13.8 mph 23.0 mph 0.12 in Thunderstorm Overcast
6:11 AM 55.4 °F 51.8 °F 88% 29.90 in 10.0 mi SSE 15.0 mph - N/A   Overcast
6:39 AM 53.6 °F 51.8 °F 94% 29.90 in 6.0 mi SSE 21.9 mph 25.3 mph 0.09 in Rain , Thunderstorm Heavy Rain
6:56 AM 54.0 °F 52.0 °F 93% 29.88 in 4.0 mi SE 16.1 mph - 0.36 in Rain , Thunderstorm Heavy Thunderstorms and Rain
7:32 AM 53.6 °F 51.8 °F 94% 29.85 in 10.0 mi SE 23.0 mph 28.8 mph 0.09 in Rain Light Rain
7:56 AM 53.1 °F 51.1 °F 93% 29.83 in 10.0 mi SSE 20.7 mph 33.4 mph 0.09 in Rain Light Rain
8:56 AM 54.0 °F 52.0 °F 93% 29.84 in 10.0 mi SSE 13.8 mph 19.6 mph 0.00 in   Clear
9:56 AM 55.0 °F 53.1 °F 93% 29.84 in 10.0 mi SSE 23.0 mph 28.8 mph N/A   Partly Cloudy
10:56 AM 55.9 °F 54.0 °F 93% 29.84 in 10.0 mi SSE 20.7 mph 25.3 mph 0.03 in   Overcast
11:05 AM 55.4 °F 53.6 °F 94% 29.85 in 10.0 mi SSE 17.3 mph 26.5 mph N/A   Overcast
11:45 AM 57.2 °F 53.6 °F 88% 29.85 in 10.0 mi SSE 23.0 mph 29.9 mph N/A   Overcast
11:56 AM 57.9 °F 54.0 °F 87% 29.83 in 10.0 mi SSE 17.3 mph 29.9 mph N/A   Overcast
12:56 PM 63.0 °F 55.9 °F 78% 29.79 in 10.0 mi SSE 25.3 mph 35.7 mph N/A   Mostly Cloudy
1:56 PM 66.9 °F 55.9 °F 68% 29.74 in 10.0 mi SSE 24.2 mph 33.4 mph N/A   Partly Cloudy
2:56 PM 69.1 °F 57.9 °F 68% 29.70 in 10.0 mi SSE 21.9 mph 28.8 mph N/A   Scattered Clouds
3:12 PM 66.2 °F 57.2 °F 73% 29.73 in 10.0 mi SSE 23.0 mph 31.1 mph N/A   Mostly Cloudy
3:56 PM 69.1 °F 57.9 °F 68% 29.70 in 10.0 mi SSE 19.6 mph 26.5 mph N/A   Scattered Clouds
4:32 PM 71.6 °F 59.0 °F 64% 29.72 in 10.0 mi SSE 21.9 mph 31.1 mph N/A   Mostly Cloudy
4:56 PM 68.0 °F 59.0 °F 73% 29.70 in 10.0 mi SSE 18.4 mph 27.6 mph N/A   Scattered Clouds
5:16 PM 69.8 °F 59.0 °F 68% 29.72 in 10.0 mi SE 19.6 mph 26.5 mph N/A   Mostly Cloudy
5:44 PM 68.0 °F 59.0 °F 73% 29.72 in 10.0 mi SSE 17.3 mph 24.2 mph N/A   Scattered Clouds
5:56 PM 66.9 °F 59.0 °F 76% 29.69 in 10.0 mi SSE 13.8 mph 26.5 mph N/A   Mostly Cloudy
6:56 PM 64.9 °F 59.0 °F 81% 29.71 in 10.0 mi SSE 13.8 mph 23.0 mph N/A   Overcast
7:56 PM 64.9 °F 59.0 °F 81% 29.72 in 10.0 mi SE 17.3 mph 25.3 mph N/A   Overcast
8:56 PM 63.0 °F 59.0 °F 87% 29.72 in 10.0 mi SSE 17.3 mph - N/A   Partly Cloudy
9:56 PM 63.0 °F 59.0 °F 87% 29.73 in 10.0 mi SE 19.6 mph 23.0 mph N/A   Clear
10:56 PM 63.0 °F 60.1 °F 90% 29.73 in 10.0 mi SSE 15.0 mph - N/A   Clear
11:56 PM 64.0 °F 60.1 °F 87% 29.72 in 10.0 mi SSE 17.3 mph - N/A   Clear